Vertical_Velocity
-1 1 2 -1 1 2 -1 -1 1 2 2 2 1 -3 -3 -1 -1 0 2 3 3 -1 -1 -2 -2 -3 -1 -4 -2 0 -0 -2 -2 1 -1 -0 -1 1 1 1 -0 1 4
-1 1 2 1 1 -0 1 0 -1 0 2 -0 -0 5 7 4 2 2 1 -0 -0 2 1 2 -2 -2 -3 -1 -3 -1 1 -1 -1 -2 -1 -2 -2 -0 -0 -3 5 7 -3
3 -0 1 1 1 1 1 1 1 -1 1 3 5 -1 -3 -2 5 7 -0 1 -3 1 -2 2 -0 1 -1 -1 -1 -1 -1 0 -0 -1 -3 -4 -2 -1 0 1 2 -3 -1
4 1 1 -1 -1 -0 -4 -0 9 -4 -5 -4 -2 -0 -1 1 4 2 2 -3 -2 1 2 1 -1 3 0 -3 2 1 2 1 -1 -1 -1 5 1 -1 -0 -3 2 -1 1
6 0 -6 -3 -2 1 -1 1 -4 -7 0 3 1 1 -7 -4 0 -4 -1 -2 1 -1 -0 1 -0 -2 -2 -1 -1 -3 -0 2 2 0 -1 -2 0 -1 -1 -1 -2 0 -0
-1 -5 -6 11 -4 -9 0 -3 2 1 5 5 -0 -5 -12 -3 -13 -3 -3 -0 -1 3 -2 2 3 2 1 -2 0 0 2 1 -1 1 -1 0 -0 0 1 5 1 -0 0
-2 -4 25 20 16 -9 -3 -0 0 -2 -1 0 -2 2 4 -4 -4 2 -7 3 -3 -1 1 3 -1 2 0 1 -0 0 4 2 2 -2 1 0 0 1 4 1 3 2 0
-1 -10 -1 -6 -11 -6 2 6 -1 -2 -3 -4 -2 -1 2 3 3 5 0 -6 20 19 1 1 2 0 1 -2 1 2 1 0 3 4 3 0 1 1 1 2 2 1 0
16 4 6 -5 -4 -3 4 2 3 0 -2 -4 -1 2 1 2 0 2 3 -2 -0 -1 2 2 2 2 3 2 4 -0 -1 0 0 -0 0 0 -1 1 2 1 0 2 -2
-4 24 3 -2 2 2 1 0 0 1 2 3 1 -3 -3 4 -2 -2 -2 -2 2 4 2 2 1 -0 -1 -1 4 -0 -2 1 1 1 -1 -0 2 3 4 -1 -3 -2 -1
7 -2 1 1 6 2 2 2 2 1 -1 -1 -2 -3 1 -1 -1 -2 -3 0 3 1 3 1 3 1 4 6 5 1 1 -4 7 8 -0 5 -9 1 -2 -1 -1 -2 -2
-5 -0 -2 3 -2 1 2 -0 1 0 -1 4 4 3 -1 -1 1 0 -2 1 1 2 4 1 1 -1 -1 -0 16 10 6 3 2 58 16 19 10 46 30 21 12 14 6
-1 -3 3 0 1 1 -1 1 0 0 1 -1 -1 1 -1 -1 1 -1 -1 -2 -3 1 3 1 -3 -1 -2 1 2 2 -0 -3 0 2 4 -7 12 43 15 -0 3 31 15
3 1 2 2 -0 -3 2 3 -1 -0 -2 -2 0 -3 -2 -1 -2 -1 1 -1 -2 1 2 2 1 -2 -2 1 0 2 4 0 0 1 -1 4 8 3 40 -5 33 13 -1
2 5 4 -1 -0 1 2 0 -1 -2 -2 -4 -3 -2 -3 -7 -2 -1 -0 0 1 2 1 3 3 4 4 5 5 3 2 2 0 0 0 -1 0 -4 -8 21 10 11 3
2 -1 0 1 5 2 2 3 -3 -0 0 -3 -3 -2 2 -1 -2 0 5 6 7 0 4 2 3 4 1 2 4 1 2 1 4 3 -0 4 9 -0 -5 8 7 -2 7
-3 -1 1 2 3 3 2 1 -5 1 1 -3 -3 -5 -4 -4 -3 -3 -3 -5 4 8 2 5 1 2 1 2 2 3 1 0 4 3 3 -0 -1 2 7 8 2 2 6
-1 -0 6 2 -1 3 1 -3 -2 3 -2 -2 -2 -6 -8 -1 -5 -0 -3 -1 3 1 -8 4 2 1 1 3 3 2 1 1 -0 1 0 -1 1 -3 -0 -1 -1 4 5
4 3 1 0 2 1 -3 -1 -3 2 -1 0 -6 -4 -5 -6 -3 -6 -1 1 3 1 -1 -1 -1 1 4 -7 9 0 -2 2 1 -1 -1 43 -2 -2 6 0 1 -2 -2
2 -0 0 3 1 -1 -5 -1 -1 -1 1 -2 -2 -6 -8 -7 -9 -4 -7 -6 -0 2 4 -5 -1 4 16 2 0 23 12 -0 -3 3 10 8 4 -3 2 -1 -4 -0 3
2 3 2 -2 -4 -2 -1 -1 0 -1 -2 -0 -1 -2 -5 -10 -13 -10 -6 -3 -1 -1 -3 2 3 13 14 8 6 6 1 -1 8 8 -1 -4 3 6 3 4 4 1 1
2 0 -2 -3 -1 0 -1 -2 -2 0 -1 2 -1 1 -3 -3 -7 -6 -4 -4 -3 1 -1 -5 -6 -6 -1 -5 -6 -2 -1 -16 -2 -1 -1 -4 -2 3 -1 1 4 2 2
-3 -5 -3 -1 0 -1 -4 -2 -0 1 0 2 -1 -1 -1 -1 -3 -4 -3 1 -2 -1 -3 -4 -3 -1 -2 0 2 0 2 3 -0 0 1 2 -0 1 -0 -2 1 3 1
-1 0 -1 -1 -2 -1 -1 -0 0 1 2 -0 -2 -2 -2 4 -1 -5 -7 -2 -1 -2 -3 -2 -2 -1 -0 1 -0 -2 1 -0 1 1 -0 -3 -4 1 1 3 1 1 -1
1 -4 -2 -1 -1 -0 -1 -2 -0 2 0 -1 -2 -2 -2 -0 1 1 -0 -1 -5 -3 1 0 -1 -2 -3 -1 -0 -2 -4 -2 1 -1 -2 -0 2 -0 0 0 -2 -2 -0
-2 -1 -0 1 -0 -1 -1 1 -0 1 -1 -3 -1 -0 -2 -3 -2 -2 -1 0 -1 -3 -3 -2 -2 -2 -1 -1 -1 -1 -1 -1 -1 0 2 3 1 -1 -1 -1 -0 0 2
Height
5873 5876 5877 5877 5877 5879 5881 5883 5883 5884 5885 5886 5887 5888 5890 5892 5893 5893 5895 5898 5901 5903 5905 5907 5908 5909 5910 5911 5911 5911 5909 5909 5910 5910 5909 5908 5908 5907 5908 5907 5906 5905 5903
5868 5871 5873 5875 5876 5875 5877 5878 5879 5880 5880 5880 5879 5880 5881 5884 5888 5890 5890 5891 5894 5896 5898 5900 5902 5903 5904 5905 5906 5906 5905 5904 5905 5905 5905 5903 5904 5903 5902 5902 5902 5900 5898
5867 5866 5867 5870 5872 5872 5873 5874 5874 5873 5873 5873 5875 5876 5876 5876 5877 5880 5883 5885 5888 5890 5891 5894 5895 5897 5897 5898 5899 5900 5900 5900 5900 5900 5900 5899 5899 5898 5897 5897 5897 5896 5894
5863 5864 5865 5866 5867 5867 5869 5869 5870 5871 5871 5869 5869 5872 5872 5873 5874 5875 5876 5878 5879 5882 5885 5887 5888 5890 5890 5890 5892 5894 5894 5895 5894 5894 5894 5895 5894 5892 5892 5891 5890 5890 5890
5860 5860 5861 5862 5862 5863 5865 5865 5865 5864 5860 5864 5862 5865 5867 5867 5868 5865 5868 5870 5871 5871 5874 5877 5879 5881 5882 5883 5885 5886 5888 5888 5889 5889 5888 5887 5887 5888 5886 5885 5885 5885 5883
5854 5857 5858 5856 5858 5857 5859 5860 5860 5858 5858 5859 5857 5857 5857 5855 5858 5859 5860 5861 5862 5864 5865 5867 5869 5872 5873 5874 5876 5877 5880 5880 5881 5881 5881 5881 5879 5880 5880 5879 5878 5877 5876
5852 5851 5847 5831 5850 5853 5852 5853 5853 5852 5853 5854 5852 5850 5849 5849 5849 5851 5851 5850 5850 5852 5855 5859 5861 5863 5863 5864 5865 5867 5869 5870 5871 5870 5872 5872 5871 5870 5871 5870 5869 5868 5867
5844 5846 5848 5850 5850 5846 5845 5844 5843 5843 5843 5844 5844 5843 5843 5841 5839 5839 5840 5841 5840 5842 5845 5848 5850 5852 5853 5853 5854 5856 5858 5860 5860 5860 5861 5861 5862 5861 5861 5861 5860 5859 5857
5841 5842 5845 5845 5843 5841 5840 5838 5836 5834 5833 5834 5833 5833 5833 5832 5830 5830 5830 5832 5834 5836 5837 5838 5840 5841 5843 5842 5843 5846 5847 5850 5850 5850 5850 5851 5851 5852 5851 5850 5849 5848 5846
5837 5838 5839 5838 5836 5835 5834 5831 5829 5829 5827 5825 5823 5822 5823 5824 5821 5820 5819 5820 5824 5826 5827 5828 5829 5831 5831 5830 5831 5833 5837 5840 5838 5838 5840 5840 5840 5840 5840 5839 5837 5836 5834
5832 5831 5831 5829 5829 5828 5827 5824 5823 5822 5819 5817 5815 5813 5813 5813 5812 5811 5809 5810 5813 5814 5815 5816 5818 5818 5817 5817 5818 5824 5827 5828 5826 5824 5827 5826 5827 5827 5826 5825 5822 5822 5822
5824 5825 5822 5822 5821 5821 5820 5818 5817 5815 5812 5811 5808 5805 5802 5802 5802 5800 5798 5797 5798 5801 5804 5804 5805 5804 5805 5807 5810 5813 5816 5816 5815 5808 5803 5814 5816 5806 5810 5809 5810 5810 5810
5817 5816 5815 5815 5814 5813 5811 5810 5808 5807 5805 5803 5799 5796 5793 5791 5790 5789 5787 5786 5786 5787 5790 5791 5792 5792 5794 5796 5799 5802 5804 5807 5808 5806 5804 5805 5802 5801 5802 5799 5801 5797 5799
5810 5809 5808 5807 5806 5806 5804 5803 5801 5799 5796 5793 5791 5788 5785 5782 5779 5777 5776 5774 5773 5774 5776 5777 5778 5779 5781 5784 5787 5790 5794 5795 5796 5797 5796 5795 5793 5793 5793 5789 5790 5787 5785
5803 5802 5801 5800 5800 5799 5798 5796 5794 5790 5787 5783 5781 5778 5774 5770 5768 5765 5762 5761 5761 5761 5762 5764 5765 5767 5769 5772 5775 5777 5781 5783 5784 5786 5787 5787 5786 5784 5783 5781 5779 5778 5774
5796 5795 5793 5794 5794 5794 5792 5790 5787 5782 5779 5775 5771 5767 5763 5757 5751 5747 5745 5744 5745 5746 5749 5751 5753 5755 5758 5761 5763 5765 5768 5771 5774 5776 5778 5779 5776 5775 5774 5774 5774 5772 5769
5787 5787 5788 5788 5789 5788 5786 5783 5780 5775 5773 5768 5763 5757 5753 5748 5742 5736 5731 5729 5731 5733 5735 5739 5741 5743 5745 5748 5751 5754 5757 5760 5762 5766 5768 5767 5766 5766 5767 5765 5764 5762 5762
5782 5782 5783 5783 5783 5782 5781 5778 5774 5771 5768 5762 5757 5751 5746 5740 5733 5729 5723 5720 5724 5726 5727 5730 5732 5734 5736 5738 5741 5743 5746 5750 5753 5755 5757 5759 5758 5758 5758 5756 5756 5755 5753
5775 5778 5779 5779 5778 5777 5775 5771 5769 5766 5763 5759 5753 5748 5743 5737 5730 5725 5720 5718 5719 5720 5722 5723 5725 5722 5724 5727 5731 5736 5739 5741 5745 5748 5749 5746 5748 5750 5749 5747 5746 5746 5748
5770 5772 5773 5774 5772 5770 5769 5767 5764 5762 5759 5756 5752 5745 5740 5735 5730 5725 5720 5717 5717 5719 5721 5719 5721 5719 5721 5721 5726 5728 5732 5736 5739 5740 5741 5741 5740 5740 5742 5744 5746 5748 5748
5763 5765 5767 5767 5766 5764 5763 5762 5760 5758 5757 5754 5751 5747 5742 5735 5730 5728 5724 5720 5718 5718 5717 5717 5719 5717 5718 5719 5723 5725 5728 5731 5732 5732 5732 5736 5740 5740 5743 5743 5744 5748 5746
5757 5759 5759 5760 5759 5759 5758 5757 5755 5755 5753 5752 5750 5748 5745 5741 5736 5732 5730 5726 5722 5719 5718 5718 5718 5719 5720 5720 5722 5723 5725 5732 5734 5735 5736 5738 5739 5740 5741 5741 5740 5741 5741
5750 5752 5753 5754 5754 5754 5753 5752 5751 5750 5750 5748 5747 5747 5746 5744 5741 5740 5736 5734 5731 5729 5727 5727 5729 5729 5730 5730 5730 5730 5732 5734 5734 5735 5737 5738 5737 5735 5735 5737 5737 5736 5734
5745 5747 5748 5748 5748 5748 5748 5747 5747 5746 5746 5745 5744 5744 5744 5744 5742 5741 5740 5738 5736 5734 5733 5732 5732 5733 5733 5733 5732 5732 5732 5733 5734 5735 5735 5735 5733 5732 5732 5732 5732 5731 5730
5739 5741 5742 5742 5742 5742 5742 5742 5743 5743 5741 5740 5740 5741 5741 5741 5741 5741 5740 5739 5738 5738 5737 5736 5736 5735 5735 5735 5735 5734 5733 5732 5732 5732 5731 5730 5729 5728 5727 5727 5727 5726 5725
5733 5734 5736 5737 5737 5738 5738 5738 5738 5738 5737 5736 5736 5736 5737 5737 5736 5736 5736 5736 5736 5736 5736 5735 5735 5735 5735 5735 5734 5732 5731 5729 5729 5728 5726 5725 5724 5723 5723 5722 5720 5718 5717